www.pogodaiklimat.ru
ПОГОДА в Дугласе
Время
и дата
20:56 05.02
21:56 05.02
22:56 05.02
23:56 05.02
00:56 06.02
01:56 06.02
02:56 06.02
03:56 06.02
04:56 06.02
05:56 06.02
06:56 06.02
07:56 06.02
08:56 06.02
09:56 06.02
10:56 06.02
11:56 06.02
12:56 06.02
13:56 06.02
14:56 06.02
15:56 06.02
16:56 06.02
17:56 06.02
18:56 06.02
19:56 06.02
20:56 06.02
21:56 06.02
22:56 06.02
23:56 06.02
00:56 07.02
01:56 07.02
02:56 07.02
03:56 07.02
04:56 07.02
05:56 07.02
06:56 07.02
07:56 07.02
08:56 07.02
09:56 07.02
10:56 07.02
11:56 07.02
12:56 07.02
13:56 07.02
14:56 07.02
15:56 07.02
16:56 07.02
17:56 07.02
18:56 07.02
19:56 07.02
Ветер
(напр.,м/с)
Видим. Явления Облачность Т
(С)
Тd
(С)
f
(%)
Тe
(С)
Тes
(С)
Комфортность P
(гПа)
Po
(гПа)
Тmin
(С)
Tmax
(С)
R
(мм)
R24
(мм)
S
(см)
С 5 16 км ясно +11.7 -6.1 28 +10 +10 1016.3 875.1
С 3 16 км ясно +10.0 -6.7 30 +9 +9 1016.0 875.1
С 3 16 км ясно +8.9 -6.7 33 +7 +7 1015.6 875.4 +8.9 +23.9
СВ 3 16 км ясно +6.7 -6.7 38 +4 +4 1014.6 874.6
В 2 16 км ясно +5.0 -7.2 41 +3 +3 1013.8 874.0
штиль 0 16 км ясно +3.3 -7.8 44 +3 +3 1013.5 873.7
В 3 16 км ясно +5.6 -7.2 39 +3 +3 1012.3 873.1
ЮВ 2 16 км ясно +6.7 -7.8 35 +5 +5 1011.6 872.5
В 2 16 км ясно +4.4 -8.3 39 +3 +3 1011.6 872.2 +2.8 +8.9
ЮВ 3 16 км ясно +5.0 -8.3 38 +2 +2 1012.1 872.2
нст 3 16 км ясно +2.8 -8.9 42 0 0 1013.0 872.2
СВ 2 16 км ясно +2.2 -8.3 46 0 0 1013.7 872.2
штиль 0 16 км ясно +10.0 -7.8 28 +10 +11 1012.7 872.5
С 3 16 км ясно +13.9 -8.9 20 +13 +16 1012.4 872.2
СЗ 4 16 км ясно +15.0 -8.3 19 +14 +19 1012.3 872.2 +15.6
СЗ 4
{12}
16 км ясно +17.2 -8.9 16 +17 +23 1011.2 871.4
З 9
{13}
16 км ясно +18.9 -10.6 13 +18 +19 1009.9 870.2
З 10
{15}
16 км ясно +18.3 -10.0 14 +17 +18 1009.1 869.3
З 7
{14}
16 км ясно +18.9 -10.0 13 +18 +20 1008.4 869.0
З 11
{15}
16 км ясно +17.2 -8.3 17 +16 +16 1008.7 869.3
СЗ 10
{15}
16 км ясно +13.9 -6.1 24 +11 +12 1010.1 869.9 +13.9 +18.9
СЗ 9
{14}
16 км ясно +10.0 -8.3 27 +7 +7 1012.1 871.1
СЗ 9
{13}
16 км ясно +8.3 -8.9 29 +4 +4 1014.0 871.9
СЗ 7 16 км ясно +6.1 -7.8 36 +2 +2 1015.2 872.8
СЗ 11
{15}
16 км ясно +5.6 -6.7 41 0 0 1014.4 872.8
С 5 16 км ясно +3.3 -6.7 48 -1 -1 1015.2 873.7
СЗ 4 16 км ясно +1.7 -7.2 52 -3 -3 1015.7 874.0 +1.7 +13.3
С 5 16 км ясно +1.1 -7.2 54 -4 -4 1015.7 874.3
С 4 16 км ясно -1.7 -7.8 63 -7 -7 1015.9 874.3
СВ 2 16 км ясно -1.7 -7.2 66 -5 -5 1016.2 874.6
С 5 16 км ясно -1.1 -6.7 66 -7 -7 1015.8 874.3
штиль 0 16 км ясно -2.2 -7.2 69 -3 -3 1016.3 874.6
штиль 0 16 км ясно -2.8 -7.2 72 -4 -4 1017.3 874.9 -4.4 +1.7
СВ 2 16 км ясно -4.4 -7.8 77 -8 -8 1018.8 875.1
СВ 3 16 км ясно -5.6 -7.8 84 -11 -11 1019.9 876.0
штиль 0 16 км ясно -1.7 -6.1 72 -3 -3 1020.5 876.6
СЗ 4 16 км ясно +3.3 -5.0 54 -1 0 1020.4 877.2
С 3 16 км ясно +7.2 -6.7 36 +5 +8 1020.2 877.2
С 6
{11}
н/о ясно +8.9 -7.8 30 +6 +8 1020.2 877.2 -6.1 +8.9
нст 3 16 км н/о +10.6 -9.4 24 +9 +9 1019.7 876.9
С 6
{9}
16 км ясно +11.1 -11.1 20 +9 +13 1019.2 876.3
С 6
{10}
16 км ясно +11.7 -13.3 16 +10 +13 1018.9 876.0
С 4 16 км ясно +12.2 -14.4 14 +11 +16 1018.5 875.7
С 6 16 км ясно +11.7 -15.6 13 +10 +12 1019.0 876.0
С 7
{9}
16 км ясно +11.1 -13.3 17 +9 +9 1019.7 876.6 +8.9 +12.2
С 4 16 км ясно +8.3 -12.2 22 +6 +6 1021.2 877.2
С 5 16 км ясно +3.9 -11.7 31 0 0 1022.6 877.5
СВ 4 16 км ясно +3.3 -11.1 34 0 0 1022.5 877.8
Местоположение метеостанции Bisbee-Douglas International Airport: широта 31.4692 долгота -109.6036 высота над уровнем моря 1266 м.
В архиве по умолчанию представлена погода в Дугласе за последние 1-2 суток. Обновление информации о фактической погоде в базе происходит ежечасно! Архивные данные за месяц целиком и за предыдущие месяцы Вы можете получить, выбрав интересующий диапазон дат из раскрывающегося списка и нажав кнопку "Ввод!".
Внимание! Архив погоды МЕТАР в базе сайта по станциям, не включенным в климатический монитор, хранится не более 60 дней. Нет смысла пытаться выбрать более раннюю дату.
*Определитесь, кто Вы:
Внимание! Время в таблицах - местное (без учета летнего времени). Для получения всемирного времени необходимо вычесть поправку, которая равна -7 ч.
Смотрите также архив погоды в соседних городах и на ближайших метеорологических станциях:
Партнеры нашего сайта:      
Пояснения к столбцам:
  • Ветер - указаны скорость ветра в м/с - средняя за 10 мин, порывы в срок и между сроками (в фигурных скобках) и направление, откуда дует ветер: С - северный,
  • СВ - северо-восточный, В - восточный, ЮВ - юго-восточный, Ю - южный, ЮЗ - юго-западный, З - западный, СЗ - северо-западный.
  • Видимость - горизонтальная дальность видимости в метрах или километрах. При видимости от 1 до 10 км при отсутствии осадков обычно наблюдается дымка, при ухудшении видимости до 1 км и менее - туман. В сухую погоду видимость может ухудшаться дымом, пылью или мглою.
  • Явления - указаны атмосферные явления, наблюдавшиеся в срок или в последний час перед сроком; фигурными скобками обозначены явления, наблюдавшиеся между сроками (за 1-3 часа до срока); квадратными скобками обозначены град или гололедные отложения с указанием их диаметра в мм.
  • Облачность - указаны через наклонную черту общая и нижняя облачность в баллах и высота нижней границы облаков в метрах; квадратными скобками обозначены формы облаков: Ci - перистые, Cs - перисто-слоистые, Cc - перисто-кучевые, Ac - высококучевые, As - высокослоистые, Sc - слоисто-кучевые, Ns - слоисто-дождевые, Cu - кучевые, Cb - кучево-дождевые. Подробнее классификацию облаков см. в Атласе облаков (PDF).
  • T - Температура воздуха - температура, измеренная на высоте 2 м над землей.
  • Td - Температура точки росы - температура, при понижении до которой содержащийся в воздухе водяной пар достигнет насыщения.
  • f - Относительная влажность воздуха - влажноcть воздуха, измеренная на высоте 2 м над землей.
  • Te - Эффективная температура - температура, которую ощущает одетый по сезону человек в тени. Характеристика душности погоды. При расчете учитывается влияние влажности воздуха и скорости ветра на теплоощущения человека.
  • Tes - Эффективная температура на солнце - температура, которую ощущает человек, с поправкой на солнечный нагрев. Характеристика знойности погоды. Зависит от высоты солнца над горизонтом, облачности и скорости ветра. Ночью, в пасмурную погоду, а также при ветре 12 м/с и более поправка равна нулю.
  • P - Атмосферное давление - приведенное к уровню моря атмосферное давление.
  • Po - Атмосферное давление - измеренное на уровне метеостанции атмосферное давление.
  • Tmin - Минимальная температура - минимум температуры воздуха на высоте 2 м над землей.
  • Tmax - Максимальная температура - максимум температуры воздуха на высоте 2 м над землей.
  • R - Количество осадков - Количество выпавших осадков за период времени, мм. При наведении курсора мыши на число - период времени, за который выпало указанное количество осадков.
  • R24 - Количество осадков - Количество выпавших осадков за 24 часа, мм.
  • S - Снежный покров - Высота снежного покрова, см. При наведении курсора мыши на число - состояние снежного покрова и степень покрытия местности в баллах.